This demonstration page uses our WeatherBlox Daily Observations layout. Learn more.

Left ArrowRight Arrow

Hourly Observations for May 3, 2021

Temp ( °F °C ) Dew Point ( °F °C ) Humidity (%) Winds ( mph kmh ) Pressure ( in mb ) Visibility ( mi km ) Precip ( " mm )
12:15 am 00:15 Cloudy with Rain 58 14.5 54 12 85 85 S 10 17 29.75 1007 10 16 0.00 0.00
12:35 am 00:35 Cloudy with Drizzle 58 14.5 54 12 85 85 S 8 13 29.74 1007 10 16 0.00 0.00
12:55 am 00:55 Cloudy with Drizzle 58 14.2 54 12.1 87 87 S 6 9 29.74 1007 10 16 0.00 0.00
1:35 am 01:35 Cloudy with Drizzle 57 13.8 53 11.9 88 88 S 10 17 29.72 1006 7 11 0.01 0.25
1:55 am 01:55 Cloudy with Rain 56 13.6 54 12.2 91 91 SSE 9 15 29.72 1006 10 16 0.03 0.76
2:15 am 02:15 Cloudy with Rain 56 13.5 54 12.3 93 93 SSE 9 15 29.71 1006 10 16 0.01 0.25
2:35 am 02:35 Cloudy with Drizzle 56 13.5 55 12.5 94 94 SSE 8 13 29.70 1006 10 16 0.01 0.25
3:00 am 03:00 Cloudy with Rain 56 13.3 55 12.5 95 95 SSE 7 11 29.69 1005 10 16 0.01 0.25
3:15 am 03:15 Cloudy with Drizzle 56 13.3 55 12.5 95 95 SSE 8 13 29.68 1005 10 16 0.01 0.25
3:35 am 03:35 Cloudy with Rain 56 13.3 55 12.5 95 95 SE 10 17 29.67 1005 10 16 0.01 0.25
3:55 am 03:55 Cloudy with Drizzle 56 13.1 54 12.4 96 96 SE 7 11 29.66 1004 10 16 0.01 0.25
4:15 am 04:15 Cloudy with Light Rain 55 13 54 12.2 95 95 SE 8 13 29.65 1004 10 16 0.00 0.00
4:35 am 04:35 Cloudy with Rain 55 13 54 12.2 95 95 SE 7 11 29.65 1004 10 16 0.00 0.00
4:55 am 04:55 Cloudy with Light Rain 55 13 54 12.2 95 95 SE 6 9 29.64 1004 10 16 0.00 0.00
5:15 am 05:15 Cloudy 55 13 54 12.3 96 96 ESE 6 9 29.63 1003 10 16 0.00 0.00
5:35 am 05:35 Cloudy 56 13.1 54 12.4 96 96 ESE 5 7 29.62 1003 10 16 0.00 0.00
5:55 am 05:55 Cloudy 56 13.2 55 12.5 96 96 ESE 3 6 29.62 1003 10 16 0.00 0.00
6:15 am 06:15 Cloudy 56 13.3 55 12.6 96 96 ESE 3 6 29.62 1003 10 16 0.00 0.00
6:35 am 06:35 Cloudy with Rain 56 13.4 55 12.9 97 97 SSE 3 6 29.62 1003 4 6 0.00 0.00
6:55 am 06:55 Cloudy with Rain 56 13.5 56 13.1 97 97 SE 6 9 29.62 1003 3 5 0.03 0.76
7:15 am 07:15 Cloudy with Drizzle 56 13.6 56 13.5 99 99 SE 6 9 29.62 1003 3 4 0.00 0.00
7:35 am 07:35 Cloudy with Rain 57 13.8 56 13.6 99 99 ESE 3 6 29.62 1003 3 4 0.01 0.25
7:55 am 07:55 Cloudy with Light Rain 57 14 57 13.7 98 98 SE 3 6 29.62 1003 2 3 0.02 0.51
8:15 am 08:15 Cloudy with Drizzle 57 14 57 13.9 99 99 Calm 29.62 1003 3 4 0.00 0.00
8:35 am 08:35 Cloudy with Rain 57 14.1 57 14 99 99 Calm 29.62 1003 1 2 0.00 0.00
8:55 am 08:55 Cloudy with Light Rain 58 14.2 57 14 99 99 Calm 29.62 1003 3 4 0.00 0.00
9:15 am 09:15 Cloudy with Light Rain 58 14.5 58 14.3 99 99 SSE 3 6 29.62 1003 4 6 0.00 0.00
9:35 am 09:35 Cloudy with Mist and Fog 58 14.7 58 14.5 99 99 SSE 3 6 29.61 1003 4 6 0.01 0.25
9:55 am 09:55 Cloudy with Mist and Fog 59 15 58 14.6 97 97 Calm 29.61 1003 5 8 0.01 0.25
10:15 am 10:15 Cloudy 60 15.5 59 15 97 97 SSW 5 7 29.61 1003 7 11 0.00 0.00
10:35 am 10:35 Cloudy 60 15.7 59 15.1 96 96 SW 5 7 29.61 1003 10 16 0.00 0.00
10:55 am 10:55 Cloudy 60 15.8 59 14.9 94 94 WSW 7 11 29.61 1003 7 11 0.00 0.00
11:15 am 11:15 Cloudy 62 16.4 60 15.4 94 94 WSW 6 9 29.61 1003 10 16 0.00 0.00
11:35 am 11:35 Cloudy 62 16.9 60 15.4 91 91 W 9 15 29.61 1003 10 16 0.00 0.00
11:55 am 11:55 Cloudy 63 17.1 60 15.6 91 91 W 8 13 29.61 1003 10 16 0.00 0.00
12:15 pm 12:15 Cloudy 63 17.3 60 15.3 88 88 W 9 15 29.61 1003 10 16 0.00 0.00
12:35 pm 12:35 Cloudy 64 17.5 60 15.4 88 88 WSW 9 15 29.60 1003 10 16 0.00 0.00
12:55 pm 12:55 Cloudy 64 17.7 60 15.3 86 86 WNW 5 7 29.60 1003 10 16 0.00 0.00
1:15 pm 13:15 Cloudy 64 18 60 15.5 85 85 WNW 3 6 29.60 1002 10 16 0.00 0.00
1:35 pm 13:35 Cloudy 64 18 60 15.3 84 84 W 8 13 29.61 1003 10 16 0.00 0.00
1:55 pm 13:55 Cloudy 65 18.2 58 14.7 80 80 Calm 29.60 1002 10 16 0.00 0.00
2:15 pm 14:15 Cloudy 65 18.2 60 15.3 83 83 WSW 8 13 29.61 1003 10 16 0.00 0.00
2:35 pm 14:35 Cloudy 66 18.7 60 15.3 81 81 SW 8 13 29.62 1003 10 16 0.00 0.00
2:55 pm 14:55 Cloudy 66 18.8 60 15.3 80 80 W 7 11 29.62 1003 10 16 0.00 0.00
3:15 pm 15:15 Cloudy 66 19 60 15.6 81 81 W 10 17 29.62 1003 10 16 0.00 0.00
3:35 pm 15:35 Cloudy 66 18.8 60 15.5 81 81 WSW 10 17 29.62 1003 10 16 0.00 0.00
3:55 pm 15:55 Cloudy 66 19.1 61 16 82 82 W 10 17 29.63 1003 10 16 0.00 0.00
4:15 pm 16:15 Cloudy 66 19.1 61 16 82 82 WSW 9 15 29.63 1003 10 16 0.00 0.00
4:35 pm 16:35 Cloudy with Light Rain 67 19.2 61 16 82 82 WSW 9 15 29.62 1003 10 16 0.00 0.00
4:55 pm 16:55 Cloudy 66 19 61 15.9 82 82 WSW 10 17 29.62 1003 10 16 0.00 0.00
5:15 pm 17:15 Cloudy 67 19.6 61 16.1 80 80 WSW 10 17 29.62 1003 10 16 0.00 0.00
5:35 pm 17:35 Mostly Cloudy 68 19.9 61 16 78 78 WSW 12 19 29.61 1003 10 16 0.00 0.00
5:55 pm 17:55 Mostly Cloudy 68 20 61 16.1 78 78 SW 13 20 29.61 1003 10 16 0.00 0.00
6:15 pm 18:15 Mostly Cloudy 68 19.9 62 16.4 80 80 SW 10 17 29.61 1003 10 16 0.00 0.00
6:35 pm 18:35 Cloudy 68 20 61 16.3 79 79 WSW 12 19 29.63 1003 10 16 0.00 0.00
6:55 pm 18:55 Cloudy 67 19.6 61 16.1 80 80 WSW 14 22 29.64 1004 10 16 0.00 0.00
7:15 pm 19:15 Cloudy 67 19.5 61 16.1 81 81 WSW 10 17 29.65 1004 10 16 0.00 0.00
7:35 pm 19:35 Cloudy 67 19.3 61 16.2 82 82 WSW 8 13 29.66 1004 10 16 0.00 0.00
7:55 pm 19:55 Cloudy 66 19.1 61 16.1 83 83 WSW 8 13 29.66 1004 10 16 0.00 0.00
8:15 pm 20:15 Cloudy 66 19 61 16.2 84 84 WSW 7 11 29.67 1005 10 16 0.00 0.00
8:35 pm 20:35 Cloudy 66 18.8 61 15.9 83 83 SW 8 13 29.68 1005 10 16 0.00 0.00
8:55 pm 20:55 Cloudy 65 18.6 61 16 85 85 SSW 6 9 29.68 1005 10 16 0.00 0.00
9:15 pm 21:15 Cloudy 65 18.4 61 16 86 86 S 5 7 29.67 1005 10 16 0.00 0.00
9:35 pm 21:35 Partly Cloudy 64 17.5 60 15.6 89 89 SSW 6 9 29.69 1006 10 16 0.00 0.00
9:55 pm 21:55 Clear 62 16.5 60 15.3 93 93 S 5 7 29.70 1006 10 16 0.00 0.00
10:15 pm 22:15 Partly Cloudy 62 16.4 59 15.2 93 93 SSE 5 7 29.69 1005 10 16 0.00 0.00
10:35 pm 22:35 Mostly Cloudy 61 16.2 60 15.3 94 94 SE 10 17 29.66 1004 10 16 0.00 0.00
10:55 pm 22:55 Partly Cloudy 63 17.3 60 15.7 90 90 SSE 12 19 29.65 1004 10 16 0.00 0.00
11:15 pm 23:15 Partly Cloudy 64 17.7 61 15.9 89 89 SSW 7 11 29.67 1005 10 16 0.00 0.00
11:35 pm 23:35 Partly Cloudy 64 17.6 61 16 90 90 S 5 7 29.67 1005 10 16 0.00 0.00
11:55 pm 23:55 Partly Cloudy 63 17.2 60 15.7 91 91 SSE 8 13 29.65 1004 10 16 0.00 0.00

Powered by AerisWeather